Torna al catalogo

STARLINK-2235

AttivoComunicazioniVLEO
NORAD 48581·PAYLOAD·🇺🇸 United States

Lanciato May 15, 2021 da Cape Canaveral Space Force Station

Loading…

Prossimi Passaggi (prossime 24 ore)

TLE

AggiornatoSource: CelesTrak SupGP

Epoca: Sep 14, 2026, 20:23 UTC

1 48581C 21041AE  26257.84979167 -.00012336  00000+0 -39669-3 0  2576
2 48581  53.1574 303.5417 0001330  90.2936 333.1041 15.31709354    16

Traccia STARLINK-2235 in tempo reale con AllMySat

Download on the App Store